Location: ??????
(55.2000°N, 38.3000°E)
Time: 07:49:50
(UTC+00:00)

Cosmos 1331 Rocket - Pass Details

Date: 15 November 2025
Orbit: 746 x 772 km, 74.0° (Epoch: 14 December)

Event Time Altitude Azimuth Distance (km) Brightness Sun altitude
Rises 03:24:50 0° 200° (SSW) 3,230 7.2 -13.2°
Reaches altitude 10° 03:27:12 10° 199° (SSW) 2,304 6.4 -12.9°
Maximum altitude 03:32:26 77° 115° (ESE) 791 4.2 -12.2°
Drops below altitude 10° 03:37:39 10° 30° (NNE) 2,304 6.7 -11.5°
Sets 03:40:01 0° 29° (NNE) 3,229 7.4 -11.2°
